2016-067D

Last updated on Thu Jan 26 2017 00:17:35 GMT+0000 (Coordinated Universal Time)

1 41851U 16067D 17025.17475830 -.00000246 00000-0 -16300-4 0 9997 2 41851 97.9639 100.8134 0010246 59.6452 300.5780 14.96402752 11112

Satellite not in orbit

2016-067D